Location: Hormuz
(27.0871°N, 56.4580°E)
Time: 05:08:22
(UTC+04:30)

X-37B - Pass Details

Date: 23 June 2021
Orbit: 383 x 392 km, 45.0° (Epoch: 01 July)

Event Time Altitude Azimuth Distance (km) Brightness Sun altitude
Exits shadow 03:47:06 - 328° (NNW) 1,721 4.0 -23.3°
Reaches altitude 10° 03:48:00 10° 336° (NNW) 1,401 3.6 -23.1°
Maximum altitude 03:50:38 24° 33° (NNE) 846 3.0 -22.7°
Drops below altitude 10° 03:53:16 10° 90° (E) 1,401 4.0 -22.3°
Sets 03:55:35 0° 104° (ESE) 2,255 4.9 -21.9°
